Regional Weather Roundup
Issued by NWS

Home | Current Version | Previous Version | Text Only | Print | Product List | Glossary On
Versions: 1 2 3 4 5 6 7 8 9 10 11 12 13 14 15 16 17 18 19 20 21 22 23 24 25 26 27 28 29 30 31 32 33 34 35 36 37 38 39 40 41 42 43 44 45 46 47 48 49 50
000
ASUS44 KMEG 221810
RWRTN
TENNESSEE HOURLY STATE WEATHER ROUNDUP
NATIONAL WEATHER SERVICE MEMPHIS TN
1200 PM CST THU FEB 22 2018

TNZ002-004-019-021-049-052-054-088>092-221900-
WEST TENNESSEE

CITY           SKY/WX    TMP DP  RH WIND       PRES   REMARKS
MEMPHIS INTL   DRIZZLE   48  46  93 NE7       30.35F
NWS MEMPHIS      N/A     47 N/A N/A MISG        N/A
JACKSON        CLOUDY    50  50 100 CALM      30.37F FOG
DYERSBURG      CLOUDY    48  46  93 CALM      30.37F
COVINGTON      CLOUDY    48  46  93 CALM      30.37F
UNION CITY     CLOUDY    48  46  93 CALM      30.36F
BOLIVAR        CLOUDY    50  48  93 CALM      30.36F FOG
PARIS          CLOUDY    52  50  93 CALM      30.35F
HUNTINGDON     CLOUDY    54  52  94 S5        30.35F
LEXINGTON      PTSUNNY   52  52 100 CALM      30.36F FOG
SELMER         CLOUDY    52  50  93 CALM      30.36S
SAVANNAH       CLOUDY    55  54  94 VRB5      30.35F
$$

TNZ008-025-027-028-033-062-065-066-221900-
NORTH MIDDLE TENNESSEE

CITY           SKY/WX    TMP DP  RH WIND       PRES   REMARKS
NASHVILLE      LGT RAIN  57  55  93 CALM      30.38F FOG
PORTLAND       CLOUDY    55  55 100 CALM      30.38S FOG
CLARKSVILLE    CLOUDY    53  50  89 S6        30.36F
SMYRNA         LGT RAIN  57  56  96 NW5       30.40S
COOKEVILLE     MOSUNNY   66  63  88 CALM      30.39R
GALLATIN       CLOUDY    57  55  94 CALM      30.40F FOG
CROSSVILLE     CLOUDY    65  60  84 SW5       30.42S
$$

TNZ061-075-076-078-094-096-097-221900-
SOUTH MIDDLE TENNESSEE

CITY           SKY/WX    TMP DP  RH WIND       PRES   REMARKS
TULLAHOMA      PTSUNNY   64  64 100 NW10      30.39R FOG
WINCHESTER     CLOUDY    66  64  94 N6        30.37F
MCMINNVILLE    PTSUNNY   66  63  88 SW6       30.39R
COLUMBIA       SUNNY     64  64 100 SE6       30.31F
SHELBYVILLE    MOSUNNY   64  63  94 S8        30.39S FOG
$$

TNZ017-018-042-046-047-221900-
NORTHEAST TENNESSEE

CITY           SKY/WX    TMP DP  RH WIND       PRES   REMARKS
TRI CITIES     FAIR      79  56  45 SW18G28   30.38F
ELIZABETHTON   FAIR      79  54  41 NW14G21   30.38F
$$

TNZ012-013-036-069-073-074-221900-
CENTRAL EAST TENNESSEE

CITY           SKY/WX    TMP DP  RH WIND       PRES   REMARKS
KNOXVILLE      PTSUNNY   78  62  57 SW21      30.37F
OAK RIDGE      CLOUDY    76  62  62 VRB5G17   30.39S
DOWNTOWN KNOXV MOSUNNY   79  61  53 W15G24    30.37F
GATLINBURG     MOSUNNY   81  59  47 NW7G13    30.36F
MORRISTOWN     MOSUNNY   79  59  50 W16G23    30.38S
JACKSBORO      PTSUNNY   77  59  53 SW10      30.40F
$$

TNZ083-085-099-221900-
SOUTHEAST TENNESSEE

CITY           SKY/WX    TMP DP  RH WIND       PRES   REMARKS
CHATTANOOGA    PTSUNNY   79  61  53 S13G20    30.38F
$$

SKY/WX REPORTED AS FAIR MEANS FEW OR NO CLOUDS BELOW
12 THOUSAND FEET.





USA.gov is the U.S. government's official web portal to all federal, state and local government web resources and services.